Showing default

COSMOS 2575, 58929

Orbit data source: Space-Track

COSMOS 2575, 58929 is a payload satellite owned by MO RF (CIS) in SSO that was launched on Fri, 09 Feb 2024 UTC via a SOYUZ-2-1V launch vehicle from the Plesetsk Missile And Space Complex (PKMTR). Payload-class satellites include a variety of spacecraft equipped with specific instruments for various scientific and technological missions. These include communications satellites like Starlink; space stations such as the ISS; scientific satellites like the Hubble; Earth observation satellites from companies like Planet Labs, Umbra, and HawkEye 360; GPS; miniature CubeSats for education and research; and military/defense satellites.

Loading next visibility...
Identifier
58929, 2024-026A
Orbit
SSO
Country
Flag of CISCIS
Related business
Manufacturer
VNIIEM
Mission
Operational Defense Imaging
Bus & Motor
EMKA, Unknown motor
Mass
520 kg wet, ~500 kg dry
Launch date (UTC)
2024-02-09 (2 years ago)
Launch vehicle
SOYUZ-2-1V
Launch site
Plesetsk Missile And Space Complex (PKMTR)
Object type
Payload
Rocket body
Debris
Shape & HBR
Cyl + 2 Pan, 1.5 m
Radar Cross Section
3.727 m², Large (>1 m²)

Expand to show TLE details & history
Last TLE update: 14 hours ago

TLE from 14 hours ago
0 COSMOS 2575
1 58929U 24026A   26202.61849624  .00021970  00000-0  14604-3 0  9996
2 58929  96.6125  85.0352 0003551  94.5275 265.6398 15.75441633141052
Epoch: 2026-07-21T14:50Z
TLE epoch observation values (Epoch: 2026-07-21T14:50:38.075Z)
Latitude
0.00001°
Longitude
-77.00905°
Altitude
346.744 km
Speed
7.701 km/s
True Right ascension
05h 40m 08s
True Declination
0° 00' 00"
Sunlit
Object was in daylight at epoch
Visualization orbit readout
Latitude
Unknown
Longitude
Unknown
Altitude
Unknown
Speed
Unknown
Apparent Right ascension
Unknown
Apparent Declination
Unknown
Sunlit
N/A
Visualization observer readout
Local Sidereal Time
17:37:11
Azimuth
Unknown
Elevation
Unknown
Doppler factor
Unknown
Orbital elements
Apogee altitude
342.62 km
Perigee altitude
337.848 km
Semi-major axis
6,718.371 km
Eccentricity
0.00036
Inclination
96.6125°
RAAN
85.0352°
Arg. of periapsis
94.5275°
True anomaly
265.59923°
Mean anomaly
265.6398°
Eccentric anomaly
265.61951°
Mean motion
3.94137 °/min
Orbital period
91.34 mins
BSTAR
0.00014604
Loading maneuver chart data...
Computing Atmospheric mass density...
Loading historical data...
Loading historical data...
Loading historical data...
Loading historical data...
Loading historical data...
Loading historical data...
Loading historical data...
Other satellites on launch #26 in the year 2024 (2024-02-09 UTC)

Documentation

Showing up to 5 results
|